Regional Weather Roundup
Issued by NWS Sioux Falls, SD

Home | Current Version | Previous Version | Graphics & Text | Print | Product List | Glossary On
Versions: 1 2 3 4 5 6 7 8 9 10 11 12 13 14 15 16 17 18 19 20 21 22 23 24 25 26 27 28 29 30 31 32 33 34 35 36 37 38 39 40 41 42 43 44 45 46 47 48 49 50
000
ASUS43 KFSD 280202
RWRFSD

WEATHER ROUNDUP FOR SE SOUTH DAKOTA/SW MINNESOTA/NW IOWA
NATIONAL WEATHER SERVICE SIOUX FALLS SD
900 PM CDT SUN JUL 27 2014

NOTE: "FAIR" INDICATES FEW OR NO CLOUDS BELOW 12,000 FEET WITH NO
SIGNIFICANT WEATHER AND OR OBSTRUCTIONS TO VISIBILITY.


SDZ038>040-050-052>070-280300-
SOUTHEAST SOUTH DAKOTA

CITY           SKY/WX    TMP DP  RH WIND       PRES   REMARKS
CHAMBERLAIN    CLEAR     69  54  58 N7        30.22R
HURON          CLEAR     65  54  67 N9        30.21R
MADISON        CLOUDY    63  59  88 N12       30.20R
MITCHELL       CLEAR     65  55  70 N9        30.21R
SIOUX FALLS    PTCLDY    64  56  75 NW9       30.17S
WINNER         FAIR      71  51  49 N10       30.23R
YANKTON        CLEAR     64  55  72 N10       30.19R
$$

MNZ071-072-080-081-089-090-097-098-280300-
SOUTHWEST MINNESOTA

CITY           SKY/WX    TMP DP  RH WIND       PRES   REMARKS
FAIRMONT       CLOUDY    68  55  64 NW12G18   30.10R
JACKSON        CLEAR     64  55  72 NW12      30.13R
LUVERNE        PTCLDY    64  57  77 NW7       30.16S
MARSHALL       PTCLDY    63  54  72 NW14      30.14R
MONTEVIDEO     CLEAR     64  57  77 N9        30.15R
PIPESTONE      CLOUDY    64  55  72 N6        30.18R
REDWOOD FALLS  PTCLDY    67  58  72 NW13G21   30.11R
TRACY          PTCLDY    64  57  77 NW14G21   30.15R
WINDOM         CLEAR     64  57  77 NW12      30.13R
WORTHINGTON    CLEAR     63  55  77 NW10      30.16R
$$

IAZ001>003-012>014-020>022-031-032-NEZ013-014-SDZ071-280300-
NORTHWEST IOWA

CITY           SKY/WX    TMP DP  RH WIND       PRES   REMARKS
CHEROKEE       CLEAR     65  58  79 NW7       30.14R
DENISON        CLEAR     66  55  68 N9        30.11R
ESTHERVILLE    CLEAR     64  58  80 NW9       30.11R
LE MARS        CLEAR     64  57  77 CALM      30.16S
ORANGE CITY    CLEAR     63  55  77 NW6       30.16S
SHELDON        MOCLDY    64  57  77 NW7       30.14S
SIOUX CITY     CLEAR     70  56  61 N14G22    30.14R
SPENCER        CLEAR     65  57  75 NW12      30.13R
STORM LAKE     CLEAR     64  59  82 NW9       30.14R
$$

ABBREVIATIONS USED IN REMARKS
   TC - TEMPERATURE IN CELSIUS
  WCI - WIND CHILL INDEX
   HX - HEAT INDEX
  VSB - VISIBILITY



USA.gov is the U.S. government's official web portal to all federal, state and local government web resources and services.